Flag for Canada Weather past 2 weeks in Chatham-Kent, Ontario, Canada

Now
66 °F

Mild.


Feels Like: 66 °F
Forecast: 60 / 72 °F
Wind: 5 mph from Northeast

Location: Erieau

Current Time: Aug 29, 2014 at 5:15:11 AM

Latest Report: Aug 29, 2014 at 4:00 AM


Visibility: N/A

Pressure: 30.12 "Hg

Humidity: 73%

Dew point: 57 °F

Location of Chatham-KentLocation

Historic Weather in Chatham-Kent — Graph

°F

Chatham-Kent temperature yesterday

Maximum temperature yesterday: 69 °F (at 3:00 PM)
Minimum temperature yesterday: 62 °F (at 3:00 AM)
Average temperature yesterday: 65 °F

Past Weeks' High & Low Weather Summary

 TemperatureHumidityPressure
High78 °F (Aug 26, 4:00 PM)100% (Aug 22, 10:00 AM)30.16 "Hg (Aug 22, 10:00 AM)
Low53 °F (Aug 15, 7:00 AM)31% (Aug 15, 4:00 PM)29.76 "Hg (Aug 19, 7:00 PM)
Average69 °F78%29.98 "Hg
* Reported Aug 14 4:00 AM — Aug 29 4:00 AM, Chatham-Kent, Weather by CustomWeather, © 2014

Note: Actual official high and low records may vary slightly from our data, if they occured in-between our weather recording intervals... More about our weather records

Advertising

Chatham-Kent weather history for previous 24 hours

 ConditionsComfort  
Time TempWeatherWind HumidityBarometerVisibility
4:00 AM
Aug 29
66 °FMild.5 mph73%30.12 "HgN/A
3:00 AM64 °FMild.3 mph76%30.13 "HgN/A
2:00 AM65 °FMild.5 mph72%30.14 "HgN/A
1:00 AM64 °FMild.6 mph71%30.14 "HgN/A
12:00 AM64 °FMild.6 mph70%30.16 "HgN/A
11:00 PM
Aug 28
64 °FMild.12 mph67%30.14 "HgN/A
10:00 PM65 °FMild.5 mph67%30.15 "HgN/A
9:00 PM66 °FMild.2 mph67%30.13 "HgN/A
8:00 PM66 °FMild.3 mph66%30.11 "HgN/A
7:00 PM68 °FMild.5 mph64%30.10 "HgN/A
6:00 PM68 °FMild.5 mph61%30.11 "HgN/A
5:00 PM69 °FMild.3 mph63%30.11 "HgN/A
4:00 PM67 °FMild.3 mph64%30.12 "HgN/A
3:00 PM69 °FMild.1 mph61%30.13 "HgN/A
2:00 PM67 °FMild.7 mph63%30.14 "HgN/A
1:00 PM68 °FMild.5 mph59%30.14 "HgN/A
12:00 PM67 °FMild.6 mph56%30.15 "HgN/A
11:00 AM66 °FMild.3 mph58%30.15 "HgN/A
10:00 AM63 °FMild.6 mph65%30.15 "HgN/A
9:00 AM62 °FCool.2 mph72%30.15 "HgN/A
8:00 AM63 °FMild.1 mph68%30.14 "HgN/A
7:00 AM62 °FCool.1 mph68%30.13 "HgN/A
6:00 AM62 °FCool.6 mph70%30.11 "HgN/A
5:00 AM62 °FCool.9 mph68%30.10 "HgN/A
Weather by CustomWeather, © 2014

See weather overviewHow to use our weather pages